Weather History for Pierre, SD

Change the Weather History Date:

Tuesday, September 17, 2013

  Actual Average Record
Temperature  
Mean Temperature 69 °F 62 °F  
Max Temperature 80 °F 76 °F 104 °F (2000)
Min Temperature 58 °F 49 °F 34 °F (1981)
Degree Days  
Heating Degree Days 0 5  
Month to date heating degree days 16 54  
Since 1 July heating degree days 25 74  
Cooling Degree Days 4 2  
Month to date cooling degree days 130 71  
Year to date cooling degree days 816 848  
Growing Degree Days 19 (Base 50)    
Moisture  
Dew Point 56 °F    
Average Humidity 68    
Maximum Humidity 87    
Minimum Humidity 48    
Precipitation  
Precipitation 0.00 in 0.05 in 1.94 in (1969)
Month to date precipitation 0.07 1.02  
Year to date precipitation 16.99 16.20  
Sea Level Pressure  
Sea Level Pressure 29.81 in    
Wind  
Wind Speed 16 mph (SE)    
Max Wind Speed 22 mph    
Max Gust Speed 28 mph    
Visibility 10 miles    
Events      
T = Trace of Precipitation, MM = Missing Value Source: NWS Daily Summary

Daily Weather History Graph

Daily Weather History Graph

Search for Another Location

Airport:

Trip Planner

Search our weather history database for the weather conditions in past years. The results will help you decide how hot, cold, wet, or windy it might be!

Date:

Astronomy

Sep. 17, 2013 Rise Set
Actual Time 7:22 AM CDT 7:47 PM CDT
Civil Twilight 6:53 AM CDT 8:16 PM CDT
Nautical Twilight 6:19 AM CDT 8:50 PM CDT
Astronomical Twilight 5:43 AM CDT 9:26 PM CDT
Moon 6:37 PM CDT (9/17) 5:16 AM CDT (9/17)
Length of Visible Light 13h 22m
Length of Day
12h 24m
Waxing Gibbous, 96% of the Moon is Illuminated
Sep 17
Waxing Gibbous
Sep 19
Full
Sep 26
Last Quarter
Oct 4
New
Oct 11
First Quarter

Hourly Weather History & Observations

Time (CDT) Temp. Dew Point Humidity Pressure Visibility Wind Dir Wind Speed Gust Speed Precip Events Conditions
12:53 AM 60.1 °F 51.1 °F 72% 29.99 in 10.0 mi SSE 11.5 mph - N/A   Overcast
1:19 AM 60.8 °F 51.8 °F 72% 30.00 in 10.0 mi SSE 10.4 mph - N/A   Overcast
1:53 AM 60.1 °F 51.1 °F 72% 29.97 in 10.0 mi SSE 15.0 mph - N/A   Overcast
2:53 AM 61.0 °F 52.0 °F 72% 29.95 in 10.0 mi SSE 16.1 mph - N/A   Overcast
3:53 AM 60.1 °F 52.0 °F 75% 29.93 in 10.0 mi SSE 13.8 mph - N/A   Overcast
4:53 AM 61.0 °F 53.1 °F 75% 29.90 in 10.0 mi SSE 16.1 mph - N/A   Overcast
5:53 AM 60.1 °F 53.1 °F 78% 29.88 in 10.0 mi SSE 15.0 mph - N/A   Overcast
6:53 AM 59.0 °F 53.1 °F 81% 29.88 in 10.0 mi SE 15.0 mph - N/A   Overcast
7:53 AM 59.0 °F 53.1 °F 81% 29.88 in 10.0 mi SE 11.5 mph - N/A   Overcast
8:53 AM 61.0 °F 54.0 °F 78% 29.86 in 10.0 mi SE 15.0 mph - N/A   Mostly Cloudy
9:13 AM 62.6 °F 53.6 °F 72% 29.86 in 10.0 mi SE 13.8 mph - N/A   Scattered Clouds
9:36 AM 64.4 °F 53.6 °F 68% 29.86 in 10.0 mi SSE 15.0 mph - N/A   Mostly Cloudy
9:53 AM 66.0 °F 55.0 °F 68% 29.85 in 10.0 mi SSE 16.1 mph - N/A   Overcast
10:53 AM 69.1 °F 55.9 °F 63% 29.83 in 10.0 mi SSE 19.6 mph 25.3 mph N/A   Overcast
11:19 AM 71.6 °F 55.4 °F 57% 29.84 in 10.0 mi South 16.1 mph 25.3 mph N/A   Scattered Clouds
11:53 AM 73.0 °F 57.0 °F 57% 29.80 in 10.0 mi SSE 16.1 mph 25.3 mph N/A   Clear
12:53 PM 75.0 °F 57.9 °F 55% 29.77 in 10.0 mi SSE 19.6 mph - N/A   Clear
1:53 PM 77.0 °F 57.9 °F 52% 29.75 in 10.0 mi SSE 16.1 mph 27.6 mph N/A   Clear
2:53 PM 78.1 °F 57.9 °F 50% 29.73 in 10.0 mi SE 18.4 mph 25.3 mph N/A   Clear
3:53 PM 79.0 °F 59.0 °F 50% 29.70 in 10.0 mi SE 16.1 mph 24.2 mph N/A   Clear
4:53 PM 79.0 °F 59.0 °F 50% 29.68 in 10.0 mi SE 15.0 mph 24.2 mph N/A   Clear
5:53 PM 79.0 °F 59.0 °F 50% 29.67 in 10.0 mi SE 17.3 mph - N/A   Clear
6:53 PM 75.0 °F 60.1 °F 60% 29.67 in 10.0 mi ESE 17.3 mph - N/A   Clear
7:53 PM 70.0 °F 60.1 °F 71% 29.67 in 10.0 mi East 11.5 mph - N/A   Clear
8:53 PM 68.0 °F 60.1 °F 76% 29.68 in 10.0 mi ESE 13.8 mph 20.7 mph N/A   Clear
9:53 PM 66.9 °F 61.0 °F 81% 29.67 in 10.0 mi ESE 16.1 mph - N/A   Clear
10:53 PM 66.0 °F 61.0 °F 84% 29.65 in 10.0 mi ESE 12.7 mph 20.7 mph N/A   Clear
11:53 PM 64.9 °F 61.0 °F 87% 29.64 in 10.0 mi ESE 15.0 mph - N/A   Clear